This is the latest recevied weather packets stored in our database for station/object OE3CJB-13. If no packets are shown the sender has not sent any weather packets the latest 10 day(s).
| Time | Temp. | Humidity | Pressure | Rain* | Wind** | Luminosity | Snow |
|---|---|---|---|---|---|---|---|
| 1787905818 | 27.22° C | 36% | 1172.9 hPa | 0 mm | - | - | - |
| 1787904955 | 27.22° C | 37% | 1176.2 hPa | 0 mm | - | - | - |
| 1787904044 | 26.67° C | 38% | 1180.7 hPa | 0 mm | - | - | - |
| 1787903130 | 26.11° C | 40% | 1184.6 hPa | 0 mm | - | - | - |
| 1787902218 | 25.56° C | 42% | 1171.3 hPa | 0 mm | - | - | - |
| 1787901355 | 25° C | 43% | 1156.9 hPa | 0 mm | - | - | - |
| 1787900444 | 24.44° C | 43% | 1156.9 hPa | 0 mm | - | - | - |
| 1787899530 | 23.89° C | 45% | 1155.4 hPa | 0 mm | - | - | - |
| 1787898664 | 23.33° C | 45% | 1156.3 hPa | 0 mm | - | - | - |
| 1787897754 | 23.33° C | 46% | 1154.5 hPa | 0 mm | - | - | - |
| 1787896844 | 22.78° C | 49% | 1153.9 hPa | 0 mm | - | - | - |
| 1787895935 | 22.22° C | 51% | 1153 hPa | 0 mm | - | - | - |
| 1787895018 | 21.67° C | 52% | 1152.4 hPa | 0 mm | - | - | - |
| 1787894155 | 21.67° C | 53% | 1151.7 hPa | 0 mm | - | - | - |
| 1787893267 | 21.11° C | 54% | 1150.8 hPa | 0 mm | - | - | - |
| 1787892364 | 21.11° C | 54% | 1150.9 hPa | 0 mm | - | - | - |
| 1787891467 | 21.11° C | 54% | 1150.8 hPa | 0 mm | - | - | - |
| 1787890554 | 21.11° C | 53% | 1150.7 hPa | 0 mm | - | - | - |
| 1787889645 | 21.11° C | 53% | 1151.5 hPa | 0 mm | - | - | - |
| 1787888730 | 21.11° C | 53% | 1151.6 hPa | 0 mm | - | - | - |
| 1787887867 | 21.11° C | 53% | 1153 hPa | 0 mm | - | - | - |
| 1787886954 | 21.67° C | 52% | 1153 hPa | 0 mm | - | - | - |
| 1787886044 | 21.67° C | 52% | 1154.5 hPa | 0 mm | - | - | - |
| 1787885130 | 21.67° C | 51% | 1154.5 hPa | 0 mm | - | - | - |
| 1787884218 | 21.67° C | 51% | 1154.5 hPa | 0 mm | - | - | - |
* Rain latest hour (hover to see other rain measurements)
** Current wind speed in m/s (hover to see current wind gust speed)